User: anonymous   Login
Location: Unspecified
(0.0000°N, 0.0000°E)
Time: 21:26:56
(UTC+00:00)
Language:

BREEZE-M DEB (TANK) - Orbit

View from above orbital plane
View from above orbital plane
View from above satellite
View from above satellite

Ground track
Ground track

The orbit data is extracted from the following two-line orbital elements,

1 42751U 17032C   24062.31598303  .00002786  00000-0  61086-3 0  9995
2 42751  49.7389  33.7327 4582325 255.9872  50.5514  6.29677505153009
Epoch (UTC): 02 March 2024 07:35:00
Eccentricity: 0.4582325
inclination: 49.7389°
perigee height: 333 km
apogee height: 11686 km
right ascension of ascending node: 33.7327°
argument of perigee: 255.9872°
revolutions per day: 6.29677505
mean anomaly at epoch: 50.5514°
orbit number at epoch: 15300

The dashed part of the orbit path shows where the satellite is in the earth's shadow,  

DLR